Regional Weather Roundup
Issued by NWS

Home | Current Version | Previous Version | Text Only | Print | Product List | Glossary Off
Versions: 1 2 3 4 5 6 7 8 9 10 11 12 13 14 15 16 17 18 19 20 21 22 23 24 25 26 27 28 29 30 31 32 33 34 35 36 37 38 39 40 41 42 43 44 45 46 47 48 49 50

000
ASUS43 KLMK 200502
RWRKY
KENTUCKY REGIONAL WEATHER ROUNDUP
NATIONAL WEATHER SERVICE LOUISVILLE KY
100 AM EDT SAT SEP 20 2014

NOTE "FAIR" INDICATES FEW OR NO CLOUDS BELOW 12,000 FEET
WITH NO SIGNIFICANT WEATHER AND/OR OBSTRUCTIONS TO VISIBILITY.

KYZ001>023-026-027-061>063-070>075-200600-
WESTERN AND SOUTH CENTRAL KENTUCKY

CITY           SKY/WX    TMP DP  RH WIND       PRES   REMARKS
PADUCAH        CLEAR     64  60  87 CALM      30.04S FOG
HENDERSON      CLEAR     55  52  88 CALM      30.05S
OWENSBORO      CLEAR     62  58  87 CALM      30.05S
HOPKINSVILLE   CLEAR     65  65  97 CALM      30.05S
BOWLING GREEN  PTCLDY    63  61  93 CALM      30.06F
GLASGOW        PTCLDY    62  62  99 CALM      30.08S
$$

KYZ024-025-028>034-038-045-046-053-200600-
NORTH CENTRAL KENTUCKY

CITY           SKY/WX    TMP DP  RH WIND       PRES   REMARKS
LOUISVILLE/SDF MOCLDY    66  57  72 SE3       30.07S
LOUISVILLE/LOU PTCLDY    64  56  75 CALM      30.08S
FORT KNOX      PTCLDY    60  57  88 E2        30.06F
$$

KYZ035>037-039>044-047>052-055>060-089>105-200600-
NORTHEAST KENTUCKY

CITY           SKY/WX    TMP DP  RH WIND       PRES   REMARKS
LEXINGTON      PTCLDY    64  58  80 SE6       30.10S
COVINGTON      PTCLDY    62  52  69 CALM      30.09S
FRANKFORT      CLEAR     57  54  89 CALM      30.08F
$$

KYZ054-064>069-076>088-106>120-200600-
SOUTHEAST KENTUCKY

CITY           SKY/WX    TMP DP  RH WIND       PRES   REMARKS
JACKSON        CLEAR     66  61  84 CALM      30.14S
LONDON         PTCLDY    66  59  78 CALM      30.13S
SOMERSET       CLEAR     61  61 100 SE5       30.12S
MIDDLESBORO    CLEAR     63  60  92 CALM      30.16S
MONTICELLO     CLEAR     65  63  93 S3        30.12S
$$




USA.gov is the U.S. government's official web portal to all federal, state and local government web resources and services.